GW3387 Weather Reports


time (UTC)temp
F
wind
direction
speed
knots
gust
knots
rain 1hr
in
rain 24hr
in
rain mn
in
humidity
%
barometer
mb
20260506144542 82 121 3.5 11.3 0.00 0.00 0.00 89 1006.7
20260506143144 82 174 3.5 12.2 0.00 0.00 0.00 89 1006.7
20260506141540 82 175 5.2 10.4 0.00 0.00 0.00 87 1006.6
20260506140040 82 163 4.3 10.4 0.00 0.00 0.00 87 1006.5
20260506134538 83 213 5.2 8.7 0.00 0.00 0.00 87 1007.1
20260506133040 83 211 3.5 9.6 0.00 0.00 0.00 88 1006.9
20260506131536 82 189 2.6 13.9 0.00 0.00 0.00 87 1007.0
20260506130033 82 161 6.1 10.4 0.00 0.00 0.00 87 1007.2
20260506124531 82 203 2.6 9.6 0.00 0.00 0.00 86 1007.2
20260506123028 82 185 5.2 14.8 0.00 0.00 0.00 87 1007.3
20260506121527 82 132 4.3 13.9 0.00 0.00 0.00 88 1007.3
20260506120025 82 124 5.2 11.3 0.00 0.00 0.00 88 1007.6
20260506114532 82 173 5.2 12.2 0.00 0.00 0.00 90 1007.7
20260506113020 82 205 5.2 9.6 0.00 0.00 0.00 88 1007.8
20260506111515 82 207 4.3 9.6 0.00 0.00 0.00 91 1008.0
20260506110012 81 217 5.2 10.4 0.00 0.00 0.00 89 1008.1
20260506104509 81 225 4.3 10.4 0.00 0.00 0.00 92 1008.3
20260506103013 80 206 3.5 7.8 0.00 0.00 0.00 93 1008.5
20260506101503 80 228 4.3 8.7 0.00 0.00 0.00 94 1008.5
20260506100101 80 203 3.5 8.7 0.00 0.00 0.00 92 1008.5
20260506094600 79 225 3.5 7.0 0.00 0.00 0.00 93 1008.6
20260506093102 78 94 4.3 9.6 0.00 0.00 0.00 94 1008.7
20260506091553 78 188 2.6 7.8 0.00 0.00 0.00 96 1008.9
20260506090049 77 134 2.6 7.8 0.00 0.00 0.00 98 1008.9
20260506084549 76 203 0.9 7.0 0.00 0.00 0.00 100 1008.9
20260506083042 75 216 1.7 7.0 0.00 0.00 0.00 100 1009.0
20260506081537 74 196 1.7 5.2 0.00 0.00 0.00 100 1009.1
20260506073023 70 139 2.6 6.1 0.00 0.00 0.00 100 1009.3
20260506071520 69 193 1.7 6.1 0.00 0.00 0.00 100 1009.4
20260506061501 64 154 3.5 7.8 0.00 0.00 0.00 100 1009.3
20260506044534 56 137 1.7 6.1 0.00 0.00 0.00 100 1009.5
20260506043028 53 196 0.0 2.6 0.00 0.00 0.00 100 1009.6
20260506041530 48 360 0.0 0.9 0.00 0.00 0.00 100 1009.4
20260506040019 45 360 0.0 0.0 0.00 0.00 0.00 100 1009.2
20260506034515 43 360 0.0 0.0 0.00 0.00 0.00 100 1009.1
20260506033010 42 360 0.0 0.0 0.00 0.00 0.00 100 1009.1
20260506031512 42 360 0.0 0.0 0.00 0.00 0.00 100 1009.2
20260506030008 42 360 0.0 0.0 0.00 0.00 0.00 100 1009.1
20260506024502 43 360 0.0 0.0 0.00 0.00 0.00 100 1009.0
20260506023101 43 360 0.0 0.0 0.00 0.00 0.00 100 1009.0
20260506021558 43 360 0.0 1.7 0.00 0.00 0.00 100 1009.0
20260506020055 44 360 0.0 0.0 0.00 0.00 0.00 100 1009.0
20260506014556 45 360 0.0 0.0 0.00 0.00 0.00 100 1009.0
20260506013050 45 360 0.0 0.0 0.00 0.00 0.00 100 1009.0
20260506011550 45 360 0.0 0.0 0.00 0.00 0.00 100 1008.9
20260506010050 45 360 0.0 0.0 0.00 0.00 0.00 100 1008.9
20260506004550 45 360 0.0 0.0 0.00 0.00 0.00 100 1008.9
20260506003048 45 360 0.0 0.0 0.00 0.00 0.00 100 1008.8
20260506001606 46 360 0.0 0.0 0.00 0.00 0.00 100 1008.7
20260506000048 46 360 0.0 0.0 0.00 0.00 0.00 100 1008.7
20260505234547 48 360 0.0 1.7 0.00 0.00 0.00 100 1008.8
20260505233037 49 360 0.0 0.0 0.00 0.00 0.00 100 1008.7
20260505231544 49 360 0.0 0.9 0.00 0.00 0.00 100 1008.7
20260505230038 49 360 0.0 0.9 0.00 0.00 0.00 100 1008.8
20260505224538 49 360 0.0 0.9 0.00 0.00 0.00 100 1008.8
20260505223040 50 360 0.0 0.0 0.00 0.00 0.00 100 1008.9
20260505221529 50 360 0.0 0.9 0.00 0.00 0.00 100 1008.9
20260505220036 51 360 0.0 0.0 0.00 0.00 0.00 100 1008.8
20260505214546 50 360 1.7 5.2 0.00 0.00 0.00 100 1009.0
20260505213038 52 360 0.0 0.0 0.00 0.00 0.00 100 1008.6
20260505211519 53 360 0.0 0.0 0.00 0.00 0.00 100 1008.6
20260505210016 55 360 0.0 0.0 0.00 0.00 0.00 100 1008.6
20260505204524 56 360 0.0 0.0 0.00 0.00 0.00 100 1008.5
20260505203015 56 360 0.0 0.0 0.00 0.00 0.00 100 1008.5
20260505201517 57 360 0.0 0.0 0.00 0.00 0.00 100 1008.4
20260505200012 58 360 0.0 0.0 0.00 0.00 0.00 100 1008.3
20260505194512 60 360 0.0 0.0 0.00 0.00 0.00 100 1008.3
20260505193033 61 360 0.0 0.0 0.00 0.00 0.00 100 1008.1
20260505191512 62 360 0.0 0.9 0.00 0.00 0.00 100 1008.1
20260505190026 63 360 0.0 0.9 0.00 0.00 0.00 99 1008.0
20260505184510 64 360 0.0 0.0 0.00 0.00 0.00 97 1007.9
20260505183016 65 360 0.0 0.0 0.00 0.00 0.00 96 1007.9
20260505181515 66 360 0.0 0.0 0.00 0.00 0.00 94 1007.7
20260505180015 68 360 0.0 0.9 0.00 0.00 0.00 93 1007.6
20260505174508 70 360 0.0 0.0 0.00 0.00 0.00 92 1007.5
20260505173009 72 360 0.0 0.9 0.00 0.00 0.00 89 1007.4
20260505171609 75 188 0.0 0.9 0.00 0.00 0.00 87 1007.3
20260505170011 77 188 0.0 0.9 0.00 0.00 0.00 85 1007.3
20260505164505 78 188 0.0 0.9 0.00 0.00 0.00 84 1007.4
20260505163006 78 177 0.0 2.6 0.00 0.00 0.00 84 1007.4
20260505161505 79 173 0.0 1.7 0.00 0.00 0.00 84 1007.5
20260505153002 80 201 4.3 6.1 0.00 0.00 0.00 85 1007.4
20260505151600 80 167 0.0 3.5 0.00 0.00 0.00 83 1007.6
20260505150116 80 226 1.7 5.2 0.00 0.00 0.00 84 1007.7